Location: Carson
(33.8314°N, 118.2820°W)
Time: 13:20:26
(UTC+00:00)

USA 234 - Pass Details

Date: 23 November 2020
Orbit: 1098 x 1110 km, 123.0° (Epoch: 17 January)

Event Time Altitude Azimuth Distance (km) Brightness Sun altitude
Rises 12:11:10 0° 46° (NE) 3,935 6.7 -29.2°
Reaches altitude 10° 12:13:42 10° 49° (NE) 2,973 6.0 -28.7°
Maximum altitude 12:20:12 62° 130° (SE) 1,233 3.6 -27.3°
Enters shadow 12:26:00 13° 209° (SSW) 2,713 5.1 -26.2°
